Regional Weather Roundup
Issued by NWS Upton, NY

Current Version | Previous Version | Text Only | Print | Product List | Glossary Off
Versions: 1 2 3 4 5 6 7 8 9 10 11 12 13 14 15 16 17 18 19 20 21 22 23 24 25 26 27 28 29 30 31 32 33 34 35 36 37 38 39 40 41 42 43 44 45 46 47 48 49 50
507 ASUS41 KOKX 261609 RWROKX REGIONAL WEATHER ROUNDUP NATIONAL WEATHER SERVICE NEW YORK NY 1200 PM EDT WED JUL 26 2017 NOTE: "FAIR" INDICATES FEW OR NO CLOUDS BELOW 12,000 FEET WITH NO SIGNIFICANT WEATHER AND/OR OBSTRUCTIONS TO VISIBILITY. NYZ071-072-176-178-NJZ106-104-261700- NEW YORK CITY METRO AREA CITY SKY/WX TMP DP RH WIND PRES REMARKS Central Park MOSUNNY 76 55 48 CALM 30.26F Bronx Bot Gard N/A 73 54 49 SE5 30.25F LaGuardia APRT MOSUNNY 74 57 55 NE12 30.23S Kennedy INTL MOSUNNY 73 59 61 SE9 30.25S Breezy Point N/A 70 N/A N/A S10 N/A Newark/Liberty MOSUNNY 74 55 51 S9 30.23F Teterboro SUNNY 75 53 46 VRB5 30.22F $$ NYZ177-179-078>081-261700- LONG ISLAND NEW YORK CITY SKY/WX TMP DP RH WIND PRES REMARKS Jones Beach N/A 70 N/A N/A S9 N/A Matinecock PT N/A 70 N/A N/A NE9 N/A Farmingdale SUNNY 75 57 53 VRB6 30.24S MacArthur/ISP MOSUNNY 75 57 53 NE5 30.23F Shirley PTSUNNY 76 58 53 VRB6 30.23F Mt Sinai Harb N/A 72 N/A N/A N3 N/A Westhampton PTSUNNY 73 57 57 SE6 30.24F East Hampton FAIR 72 60 66 SE8 30.22F Montauk N/A 72 62 71 VRB5 30.24F $$ NYZ052-065-067-261700- HUDSON VALLEY CITY SKY/WX TMP DP RH WIND PRES REMARKS White Plains MOSUNNY 73 54 51 VRB3 30.24F Larchmont Harb N/A 68 N/A N/A NE6 N/A Croton O-T Hud N/A 72 N/A N/A W1 N/A Newburgh MOSUNNY 70 59 68 CALM 30.25F Montgomery PTSUNNY 73 59 61 MISG 30.22F Poughkeepsie MOSUNNY 72 55 55 W6 30.22F Albany MOSUNNY 71 58 63 CALM 30.23F $$ NJZ001-105-106-008-010-013-015-019>022-104-261700- NEW JERSEY CITY SKY/WX TMP DP RH WIND PRES REMARKS Newark/Liberty MOSUNNY 74 55 51 S9 30.23F Teterboro SUNNY 75 53 46 VRB5 30.22F Caldwell PTSUNNY 74 57 55 VRB5 30.23F Somerville CLOUDY 74 61 63 CALM 30.22F Linden FAIR 73 51 44 SE9 30.24F Perth Amboy N/A 70 N/A N/A E12 N/A Sussex PTSUNNY 71 60 68 CALM 30.23F Andover N/A 72 60 66 W3 30.24F Trenton CLOUDY 73 61 65 E5 30.23F Millville CLOUDY 73 65 75 E7 30.22F Atlantic City CLOUDY 73 61 65 E10 30.23F Wrightstown CLOUDY 71 60 69 E7 30.20F Toms River CLOUDY 71 61 70 E6 30.25F Belmar CLOUDY 71 58 63 E9 30.25F $$ PAZ047>061-062-071-261700- EASTERN PENNSYLVANIA CITY SKY/WX TMP DP RH WIND PRES REMARKS Philadelphia PTSUNNY 74 61 63 E5 30.24S Allentown CLOUDY 70 61 73 NW3 30.24F Scranton CLOUDY 70 60 70 VRB5 30.23F $$ CTZ002-004>006-009-010-012-RIZ004-006-007-MAZ004-011-015-261700- SOUTHERN NEW ENGLAND IN CT CITY SKY/WX TMP DP RH WIND PRES REMARKS Bradley INTL MOSUNNY 75 57 53 VRB5 30.23F Hartford MOSUNNY N/A N/A N/A CALM 30.22F Danbury MOSUNNY 71 56 58 VRB5 30.25F Wtrbury/Oxford MOSUNNY 73 54 49 VRB5 30.26S Bridgeport SUNNY 73 53 49 SE7 30.24S Meriden MOSUNNY 73 55 53 CALM 30.23S New Haven MOSUNNY 75 57 53 S9 30.23F Chester PTSUNNY 75 57 53 E6 30.23F Groton MOSUNNY 71 62 73 S9 30.22F Wilimantic MOSUNNY 77 57 50 W6 30.22F IN RI CITY SKY/WX TMP DP RH WIND PRES REMARKS Providence MOSUNNY 75 56 51 SE6 30.22F Block Island SUNNY 70 59 68 VRB5 30.24F Westerly SUNNY 73 60 63 S10 30.23F IN MA CITY SKY/WX TMP DP RH WIND PRES REMARKS Boston MOSUNNY 73 58 59 SE10 30.21F Worcester MOSUNNY 70 49 47 CALM 30.25S Westfield SUNNY 74 56 53 S7 30.23F Provincetown SUNNY 68 60 75 NW6 30.22F Nantucket SUNNY 72 57 59 N5 30.22F $$ ANZ330-335-338-340-345-350-353-355-261700- COASTAL MARINE OBSERVATIONS STATION/POSITION TIME SKY/WX TEMP WIND PRES VSBY WAVE AIR SEA DIR/SP/G HT/PER (UTC) (F) (DEG/KT/KT) (MB) (MI) (FT/S) NY HARB ENTRANCE 1450 68 72 80/ 10/ 14 1023.6 2/ 7 20 S FIRE ISLAND 1550 68 73 60/ 8/ 10 1023.4 3/ 5 GREAT SOUTH BAY 1530 71 76 90/ 6/ 8 N/A 23 SSW MONTAUK P 1450 65 71 1024.7 2/ 7 15 E BARNEGAT LI 1530 71 N/A 3/ 5 HUDSON CANYON 1450 66 74 50/ 14/ 16 1023.0 3/ 5 KINGS POINT 1530 69 72 30/ 8/ 10 1023.9 EXECUTION ROCKS 1545 70 40/ 6/ 8 N/A CENTRAL LI SOUND NOT AVBL EASTERN LI SOUND NOT AVBL ROBBINS REEF 1536 180/ 15/ 15 1024.8 $$ >>>>>>>>>>>>>>>>>>>>>>>>>>>> KEY <<<<<<<<<<<<<<<<<<<<<<<<<<< > < > SKY/WX - Sky Condition/Present Weather < > TMP - Temperature in Fahrenheit < > DP - Dew Point in Fahrenheit < > RH - Relative Humidity in Percent < > WIND - Direction (from) and Speed in MPH < > PRES - Mean Sea Level Pressure (inches of Hg) < > WCI - Wind Chill Index < > VSB - VISIBILITY IN MILES < > HX - HEAT INDEX < > TC - TEMPERATURE IN CELSIUS < > VRB - VARIABLE WIND DIRECTION < > < >>>>>>>>>>>>>>>>>>>>>>>>>>>> KEY <<<<<<<<<<<<<<<<<<<<<<<<<<<

USA.gov is the U.S. government's official web portal to all federal, state and local government web resources and services.